Location: Acts Church of Fort Worth
(32.6786°N, 97.2668°W)
Time: 22:00:48
(UTC+00:00)

USA 238 - Pass Details

Date: 18 January 2026
Orbit: 883 x 1328 km, 63.4° (Epoch: 10 January)

Event Time Altitude Azimuth Distance (km) Brightness Sun altitude
Rises 23:57:57 0° 335° (NNW) 4,039 6.8 -2.8°
Reaches altitude 10° 00:00:43 10° 341° (NNW) 3,135 6.1 -3.3°
Maximum altitude 00:08:06 49° 55° (NE) 1,593 4.3 -4.7°
Drops below altitude 10° 00:15:56 10° 129° (SE) 3,339 6.0 -6.3°
Sets 00:18:57 0° 134° (SE) 4,321 6.6 -6.9°
